Estherville, IA

6:48 AM CDT on May 29, 2017 (GMT -0500)
Estherville Municipal

Weather History for KEST - July, 2012

Change the Weather History Date:

Friday, July 20, 2012

  Actual Average Record
Temperature  
Mean Temperature 75 °F 72 °F  
Max Temperature 86 °F 83 °F 95 °F (2002)
Min Temperature 63 °F 61 °F 45 °F (1970)
Degree Days  
Heating Degree Days 0 0  
Month to date heating degree days 0 0  
Since 1 June heating degree days 18 41  
Since 1 July heating degree days 0 0  
Cooling Degree Days 10 7  
Month to date cooling degree days 241 140  
Year to date cooling degree days 537 313  
Since 1 June cooling degree days 448 277  
Growing Degree Days 25 (Base 50)    
Moisture  
Dew Point 67 °F    
Average Humidity 75    
Maximum Humidity 93    
Minimum Humidity 57    
Precipitation  
Precipitation 0.00 in 0.12 in 2.23 in (1972)
Month to date precipitation T 2.67  
Year to date precipitation 15.47  
Sea Level Pressure  
Sea Level Pressure 30.07 in    
Wind  
Wind Speed 8 mph (SSE)    
Max Wind Speed 16 mph    
Max Gust Speed 18 mph    
Visibility 7 miles    
Events      
T = Trace of Precipitation, MM = Missing Value Source: NWS Daily Summary

Daily Weather History Graph

Daily Weather History Graph

Search for Another Location

Airport or City:

Trip Planner

Search our weather history database for the weather conditions in past years. The results will help you decide how hot, cold, wet, or windy it might be!

Date:

Astronomy

Jul. 20, 2012 Rise Set
Actual Time 5:57 AM CDT 8:53 PM CDT
Civil Twilight 5:23 AM CDT 9:26 PM CDT
Nautical Twilight 4:40 AM CDT 10:09 PM CDT
Astronomical Twilight 3:49 AM CDT 11:00 PM CDT
Moon 7:39 AM CDT (7/20) 9:27 PM CDT (7/20)
Length of Visible Light 16h 03m
Length of Day
14h 56m
Waxing Crescent, 3% of the Moon is Illuminated
Jul 20
Waxing Crescent
Jul 26
First Quarter
Aug 1
Full
Aug 9
Last Quarter
Aug 17
New

Hourly Weather History & Observations

Time (CDT) Temp. Heat Index Dew Point Humidity Pressure Visibility Wind Dir Wind Speed Gust Speed Precip Events Conditions
12:52 AM 68.0 °F - 64.9 °F 90% 30.07 in 6.0 mi SSE 4.6 mph - N/A   Clear
1:52 AM 66.9 °F - 64.9 °F 93% 30.07 in 6.0 mi South 5.8 mph - N/A   Clear
2:52 AM 64.9 °F - 63.0 °F 93% 30.07 in 6.0 mi SSE 4.6 mph - N/A   Clear
3:52 AM 66.0 °F - 64.0 °F 93% 30.06 in 6.0 mi South 4.6 mph - N/A   Clear
4:52 AM 64.9 °F - 63.0 °F 93% 30.06 in 5.0 mi Calm Calm - N/A   Clear
5:52 AM 64.0 °F - 62.1 °F 93% 30.07 in 3.0 mi SSE 4.6 mph - N/A   Clear
6:02 AM 64.4 °F - 62.6 °F 94% 30.10 in 2.5 mi SSE 4.6 mph - N/A   Clear
7:08 AM 66.2 °F - 64.4 °F 94% 30.11 in 3.0 mi SSE 5.8 mph - N/A   Clear
7:52 AM 69.1 °F - 66.0 °F 90% 30.10 in 5.0 mi South 10.4 mph - N/A   Clear
8:52 AM 72.0 °F - 66.0 °F 81% 30.12 in 6.0 mi South 10.4 mph - N/A   Haze
9:52 AM 75.9 °F - 66.9 °F 74% 30.12 in 8.0 mi South 9.2 mph - N/A   Clear
10:52 AM 78.1 °F - 68.0 °F 71% 30.11 in 8.0 mi SSE 9.2 mph - N/A   Clear
11:52 AM 80.1 °F 83.2 °F 70.0 °F 71% 30.11 in 8.0 mi SSE 9.2 mph - N/A   Clear
12:52 PM 81.0 °F 84.4 °F 70.0 °F 69% 30.09 in 8.0 mi SSE 11.5 mph - N/A   Clear
1:52 PM 84.0 °F 88.4 °F 70.0 °F 63% 30.07 in 9.0 mi SE 12.7 mph - N/A   Clear
2:52 PM 81.0 °F 84.1 °F 69.1 °F 67% 30.08 in 9.0 mi SE 9.2 mph - N/A   Clear
3:52 PM 82.0 °F 85.9 °F 70.0 °F 67% 30.07 in 9.0 mi SSE 9.2 mph - N/A   Clear
4:52 PM 84.9 °F 89.4 °F 70.0 °F 61% 30.05 in 10.0 mi SE 11.5 mph - N/A   Clear
5:52 PM 86.0 °F 90.7 °F 70.0 °F 59% 30.04 in 10.0 mi SSE 13.8 mph - N/A   Clear
6:52 PM 84.0 °F 87.0 °F 68.0 °F 58% 30.03 in 10.0 mi South 11.5 mph - N/A   Clear
7:52 PM 81.0 °F 84.1 °F 69.1 °F 67% 30.03 in 10.0 mi SSE 8.1 mph - N/A   Clear
8:52 PM 75.0 °F - 69.1 °F 82% 30.03 in 9.0 mi SSE 5.8 mph - N/A   Clear
9:52 PM 73.0 °F - 68.0 °F 84% 30.04 in 10.0 mi SSE 5.8 mph - N/A   Clear
10:52 PM 72.0 °F - 66.0 °F 81% 30.04 in 10.0 mi South 6.9 mph - N/A   Clear
11:52 PM 70.0 °F - 66.0 °F 87% 30.04 in 9.0 mi South 6.9 mph - N/A   Clear